Regional Weather Roundup
Issued by NWS

Home | Current Version | Previous Version | Graphics & Text | Print | Product List | Glossary On
Versions: 1 2 3 4 5 6 7 8 9 10 11 12 13 14 15 16 17 18 19 20 21 22 23 24 25 26 27 28 29 30 31 32 33 34 35 36 37 38 39 40 41 42 43 44 45 46 47 48 49 50
588
ASUS45 KPSR 200610
RWRAZ

ARIZONA HOURLY REGIONAL WEATHER ROUNDUP
NATIONAL WEATHER SERVICE PHOENIX AZ
1100 PM MST SAT AUG 19 2017

NOTE: FAIR INDICATES FEW OR NO CLOUDS BELOW 12,000 FEET WITH NO
SIGNIFICANT WEATHER AND/OR OBSTRUCTIONS TO VISIBILITY.

AZZ001>003-036-200700-
NORTHWEST ARIZONA

CITY           SKY/WX    TMP DP  RH WIND       PRES   REMARKS
BULLHEAD CITY  CLEAR     95  43  16 CALM      29.77R
KINGMAN        CLEAR     79  42  26 S10       30.00S
6HR MIN TEMP:  78; 6HR MAX TEMP:  95;

$$

AZZ004>008-015-016-018-200700-
NORTH CENTRAL ARIZONA

CITY           SKY/WX    TMP DP  RH WIND       PRES   REMARKS
GRAND CANYON   PTCLDY    54  41  61 CALM      30.26R
6HR MIN TEMP:  54; 6HR MAX TEMP:  84;

WILLIAMS       CLEAR     66  41  39 SW5       30.26S
PRESCOTT       PTCLDY    72  48  42 S8        30.14R
6HR MIN TEMP:  71; 6HR MAX TEMP:  86;

FLAGSTAFF      PTCLDY    61  43  51 CALM      30.29R
6HR MIN TEMP:  58; 6HR MAX TEMP:  78;

PAYSON           N/A     73  41  31 CALM      30.16F
PAGE           PTCLDY    86  36  16 W3        30.00R
6HR MIN TEMP:  86; 6HR MAX TEMP:  99;

$$

AZZ009>014-017-200700-
NORTHEAST ARIZONA

CITY           SKY/WX    TMP DP  RH WIND       PRES   REMARKS
WINSLOW        CLOUDY    77  45  32 SW8       30.08S
6HR MIN TEMP:  77; 6HR MAX TEMP:  89; 6HR PCP: TRACE;

SAINT JOHNS    CLOUDY    75  42  30 S6        30.15S
6HR MIN TEMP:  75; 6HR MAX TEMP:  90;

WINDOW ROCK    MOCLDY    71  35  26 CALM      30.20F
6HR MIN TEMP:  68; 6HR MAX TEMP:  85;

SHOW LOW       CLOUDY    70  45  40 S14       30.23R
$$

AZZ540-542>544-546-548-200700-
GREATER PHOENIX AREA

CITY           SKY/WX    TMP DP  RH WIND       PRES   REMARKS
PHOENIX        PTCLDY    97  52  21 W10       29.81S
6HR MIN TEMP:  94; 6HR MAX TEMP: 103;

BUCKEYE        MOCLDY    91  50  24 SW8       29.83R
LUKE AFB       PTCLDY    93  55  27 S10       29.82R
6HR MIN TEMP:  92; 6HR MAX TEMP: 103;

DEER VALLEY    PTCLDY    91  53  27 S3        29.84R
6HR MIN TEMP:  91; 6HR MAX TEMP: 101;

SCOTTSDALE     PTCLDY    91  52  26 CALM      29.86R
6HR MIN TEMP:  91; 6HR MAX TEMP: 102;

MESA-GATEWAY   PTCLDY    84  55  37 SE9       29.86R
$$

AZZ539-553-200700-
SOUTHWEST MARICOPA COUNTY AND PINAL COUNTY

CITY           SKY/WX    TMP DP  RH WIND       PRES   REMARKS
CASA GRANDE    CLEAR     89  54  30 E3        29.87R
6HR MIN TEMP:  87; 6HR MAX TEMP: 101;

GILA BEND      MOCLDY    93  44  18 SW8       29.82R
6HR MIN TEMP:  93; 6HR MAX TEMP: 105;

$$

AZZ503-504-507>509-200700-
SOUTHEAST ARIZONA

CITY           SKY/WX    TMP DP  RH WIND       PRES   REMARKS
TUCSON         NOT AVBL
DAVIS-MONTHAN  PTCLDY    81  53  37 S8        29.98S
6HR MIN TEMP:  81; 6HR MAX TEMP:  92;

NOGALES        MOCLDY    73  59  61 E5        30.10R
6HR MIN TEMP:  73; 6HR MAX TEMP:  85;

SIERRA VISTA   CLOUDY    72  53  50 SE12      30.17S
6HR MIN TEMP:  71; 6HR MAX TEMP:  77; 6HR PCP: TRACE;

DOUGLAS        CLOUDY    67  61  81 SE9       30.13S
6HR MIN TEMP:  66; 6HR MAX TEMP:  70; 6HR PCP:  0.02;

SAFFORD        CLOUDY    80  54  40 E7        30.01S
6HR MIN TEMP:  79; 6HR MAX TEMP:  86;

$$

AZZ532-200700-
SOUTHWEST ARIZONA

CITY           SKY/WX    TMP DP  RH WIND       PRES   REMARKS
YUMA           CLEAR     87  64  46 S8        29.78R
6HR MIN TEMP:  87; 6HR MAX TEMP: 105;

$$

CAZ041-043-047-048-061-525>527-560>570-200700-
SOUTHERN CALIFORNIA

CITY           SKY/WX    TMP DP  RH WIND       PRES   REMARKS
DOWNTOWN L.A.  CLEAR     68  61  78 W3        29.94R
6HR MIN TEMP:  68; 6HR MAX TEMP:  76;

L.A. AIRPORT   PTCLDY    67  61  81 W8        29.94S
6HR MIN TEMP:  67; 6HR MAX TEMP:  72;

SAN DIEGO      CLOUDY    69  60  73 W5        29.97R
6HR MIN TEMP:  69; 6HR MAX TEMP:  74;

BURBANK        CLEAR     65  59  81 S7        29.94R
6HR MIN TEMP:  65; 6HR MAX TEMP:  81;

ONTARIO        CLEAR     67  59  75 SW8       29.95R
6HR MIN TEMP:  67; 6HR MAX TEMP:  86;

RIVERSIDE      CLEAR     68  61  78 W5        29.95R
6HR MIN TEMP:  67; 6HR MAX TEMP:  86;

PALM SPRINGS   CLEAR     89  53  29 NW12G20   29.79R
6HR MIN TEMP:  89; 6HR MAX TEMP: 105;

EL CENTRO NAS  CLEAR     90  39  16 W16       29.77R
6HR MIN TEMP:  89; 6HR MAX TEMP: 107; 6HR PCP: TRACE;

IMPERIAL       CLEAR     86  48  26 W12       29.75R
6HR MIN TEMP:  86; 6HR MAX TEMP: 106;

BLYTHE         CLEAR     95  51  22 SW15      29.78R
6HR MIN TEMP:  94; 6HR MAX TEMP: 106;

NEEDLES        CLEAR     95  44  17 CALM      29.78R
6HR MIN TEMP:  95; 6HR MAX TEMP: 108;

$$

NVZ020-UTZ003-200700-
SOUTHERN NEVADA-UTAH

CITY           SKY/WX    TMP DP  RH WIND       PRES   REMARKS
LAS VEGAS      CLEAR     92  41  17 S5        29.86R
6HR MIN TEMP:  92; 6HR MAX TEMP: 102;

SALT LAKE CITY PTCLDY    82  42  24 CALM      29.98R
6HR MIN TEMP:  81; 6HR MAX TEMP:  95;

$$

NMZ009-TXZ055-200700-
NEW MEXICO-WEST TEXAS

CITY           SKY/WX    TMP DP  RH WIND       PRES   REMARKS
ALBUQUERQUE    CLOUDY    75  45  34 S8        30.17S
6HR MIN TEMP:  75; 6HR MAX TEMP:  84;

EL PASO        LGT RAIN  74  59  59 N3        30.11R
6HR MIN TEMP:  74; 6HR MAX TEMP:  85; 6HR PCP: TRACE;

$$


........................KEY........................
SKY/WX - SKY CONDITION/WEATHER
TMP    - TEMPERATURE IN FAHRENHEIT
DP     - DEW POINT IN FAHRENHEIT
RH     - RELATIVE HUMIDITY IN PERCENT
WIND   - DIRECTION AND SPEED IN MILES PER HOUR (MPH)
VRB    - VARIABLE WIND DIRECTION
PRES   - MEAN SEA LEVEL PRESSURE IN INCHES OF MERCURY
         F - FALLING PRESSURE   R - RISING PRESSURE
         S - STEADY PRESSURE
VSB    - VISIBILITY IN MILES
HX     - HEAT INDEX IN FAHRENHEIT
WCI    - WIND CHILL INDEX IN FAHRENHEIT
TC     - TEMPERATURE IN CELSIUS WHICH IS ALSO KNOWN AS
         TEMPERATURE IN CENTIGRADE
AFB    - AIR FORCE BASE
         LUKE AFB IS LUKE AIR FORCE BASE
         DAVIS-MONTHAN IS DAVIS-MONTHAN AIR FORCE BASE
NAS    - NAVAL AIR STATION
         EL CENTRO NAS IS EL CENTRO NAVAL AIR STATION
N/A    - NOT AVAILABLE





USA.gov is the U.S. government's official web portal to all federal, state and local government web resources and services.